This demonstration page uses our WeatherBlox Daily Observations layout. Learn more.

Left ArrowRight Arrow

53.60534, 11.34579

Hourly Observations for April 12, 2021

Temp ( °F °C ) Dew Point ( °F °C ) Humidity (%) Winds ( mph kmh ) Pressure ( in mb ) Visibility ( mi km ) Precip ( " mm )
6:20 am 06:20 Mostly Clear 34 1 30 -1 87 87 SW 6 9 30.09 1019 30 48.2802 N/A
6:50 am 06:50 Mostly Sunny 34 1 30 -1 87 87 WSW 5 7 30.09 1019 7 11.26538 N/A
7:20 am 07:20 Mostly Sunny 34 1 30 -1 87 87 SW 6 9 30.12 1020 7 11.26538 N/A
7:50 am 07:50 Mostly Sunny 34 1 30 -1 87 87 WSW 3 6 30.12 1020 7 11.26538 N/A
8:20 am 08:20 Mostly Sunny 36 2 32 0 87 87 SW 8 13 30.12 1020 7 11.26538 N/A
8:50 am 08:50 Mostly Sunny 37 3 32 0 81 81 WSW 8 13 30.15 1021 7 11.26538 N/A
9:20 am 09:20 Mostly Sunny 39 4 32 0 75 75 SW 7 11 30.15 1021 7 11.26538 N/A
9:50 am 09:50 Mostly Sunny 39 4 32 0 75 75 SW 7 11 30.15 1021 7 11.26538 N/A
10:20 am 10:20 Mostly Sunny 41 5 32 0 70 70 SW 9 15 30.18 1022 7 11.26538 N/A
10:50 am 10:50 Partly Cloudy 43 6 32 0 66 66 SW 10 17 30.18 1022 30 48.2802 N/A
11:20 am 11:20 Partly Cloudy 43 6 28 -2 57 57 WSW 9 15 30.18 1022 30 48.2802 N/A
11:50 am 11:50 Partly Cloudy 43 6 30 -1 61 61 SW 12 19 30.18 1022 30 48.2802 N/A
12:20 pm 12:20 Partly Cloudy 45 7 30 -1 57 57 WSW 9 15 30.18 1022 30 48.2802 N/A
12:50 pm 12:50 Partly Cloudy 46 8 32 0 57 57 VRB 10 17 30.18 1022 30 48.2802 N/A
1:20 pm 13:20 Partly Cloudy with Light Rain 39 4 34 1 81 81 WSW 10 17 30.21 1023 30 48.2802 N/A
1:50 pm 13:50 Partly Cloudy 45 7 32 0 61 61 WSW 9 15 30.21 1023 30 48.2802 N/A
2:20 pm 14:20 Mostly Cloudy with Showers Nearby 41 5 32 0 70 70 SW 18 30 30.21 1023 30 48.2802 N/A
2:50 pm 14:50 Mostly Cloudy with Showers Nearby 45 7 32 0 61 61 SSW 13 20 30.21 1023 30 48.2802 N/A
3:20 pm 15:20 Partly Cloudy with Showers Nearby 45 7 32 0 61 61 SSW 13 20 30.21 1023 30 48.2802 N/A
3:50 pm 15:50 Partly Cloudy with Showers Nearby 45 7 30 -1 57 57 SSW 14 22 30.21 1023 30 48.2802 N/A
4:20 pm 16:20 Mostly Cloudy with Light Showers 45 7 32 0 61 61 SW 13 20 30.21 1023 30 48.2802 N/A
4:50 pm 16:50 Partly Cloudy with Showers Nearby 46 8 32 0 57 57 SW 8 13 30.21 1023 30 48.2802 N/A
5:20 pm 17:20 Partly Cloudy with Showers Nearby 46 8 32 0 57 57 SW 7 11 30.21 1023 30 48.2802 N/A
5:50 pm 17:50 Partly Cloudy with Showers Nearby 46 8 30 -1 53 53 SW 16 26 30.21 1023 30 48.2802 N/A
6:20 pm 18:20 Partly Cloudy with Showers Nearby 45 7 30 -1 57 57 SW 9 15 30.21 1023 30 48.2802 N/A
6:50 pm 18:50 Partly Cloudy with Showers Nearby 45 7 27 -3 49 49 SW 14 22 30.24 1024 30 48.2802 N/A
7:20 pm 19:20 Mostly Sunny 43 6 28 -2 57 57 WSW 9 15 30.24 1024 30 48.2802 N/A
7:50 pm 19:50 Mostly Sunny 41 5 28 -2 61 61 WSW 9 15 30.24 1024 30 48.2802 N/A
8:20 pm 20:20 Mostly Clear 41 5 28 -2 61 61 WSW 7 11 30.24 1024 7 11.26538 N/A
8:50 pm 20:50 Mostly Clear 37 3 28 -2 70 70 SSW 7 11 30.27 1025 7 11.26538 N/A
9:20 pm 21:20 Mostly Clear 37 3 30 -1 75 75 SSW 6 9 30.27 1025 7 11.26538 N/A
9:50 pm 21:50 Mostly Clear 37 3 30 -1 75 75 S 8 13 30.27 1025 7 11.26538 N/A

Powered by AerisWeather